contact:dominique.lefevre@mio.osupytheas.fr, maurice.libes@osupytheas.fr, didier.mallarino@osupytheas.fr
Project:EMSO http://www.emso-fr.org/EMSO-France
Depth: 2436.0 m
Title:EMSO Ligure Ouest : Data MII capteur MICROCAT
DateTime_Computer,Latitude,Longitude,Temperature,Conductivity,Pressure,DateTime_Instrument
DateTime_Computer,Latitude,Longitude,degC,S m-1,dbar,DateTime_Instrument
2023-04-13T00:00:50Z,42.805,6.029,13.3032,4.60082,2470.73,2023-4-13T02:03:46Z
2023-04-13T00:03:53Z,42.805,6.029,13.3029,4.60085,2470.679,2023-4-13T02:06:49Z
2023-04-13T00:06:57Z,42.805,6.029,13.3029,4.60084,2470.74,2023-4-13T02:09:52Z
2023-04-13T00:10:00Z,42.805,6.029,13.3027,4.60086,2470.717,2023-4-13T02:12:55Z
2023-04-13T00:13:03Z,42.805,6.029,13.3031,4.60089,2470.754,2023-4-13T02:15:58Z
2023-04-13T00:16:06Z,42.805,6.029,13.3022,4.60084,2470.693,2023-4-13T02:19:01Z
2023-04-13T00:19:09Z,42.805,6.029,13.3029,4.60084,2470.74,2023-4-13T02:22:04Z
2023-04-13T00:22:12Z,42.805,6.029,13.3033,4.60085,2470.73,2023-4-13T02:25:07Z
2023-04-13T00:25:15Z,42.805,6.029,13.3027,4.60093,2470.763,2023-4-13T02:28:10Z
2023-04-13T00:28:18Z,42.805,6.029,13.3029,4.60089,2470.73,2023-4-13T02:31:14Z
2023-04-13T00:31:21Z,42.805,6.029,13.3028,4.60087,2470.754,2023-4-13T02:34:17Z
2023-04-13T00:34:24Z,42.805,6.029,13.3031,4.60086,2470.754,2023-4-13T02:37:20Z
2023-04-13T00:37:27Z,42.805,6.029,13.3028,4.60089,2470.73,2023-4-13T02:40:23Z
2023-04-13T00:40:30Z,42.805,6.029,13.3030,4.60084,2470.74,2023-4-13T02:43:26Z
2023-04-13T00:43:34Z,42.805,6.029,13.3030,4.60086,2470.717,2023-4-13T02:46:29Z
2023-04-13T00:46:37Z,42.805,6.029,13.3031,4.60087,2470.73,2023-4-13T02:49:32Z
2023-04-13T00:49:40Z,42.805,6.029,13.3032,4.60087,2470.717,2023-4-13T02:52:35Z
2023-04-13T00:52:43Z,42.805,6.029,13.3029,4.60086,2470.754,2023-4-13T02:55:38Z
2023-04-13T00:55:46Z,42.805,6.029,13.3029,4.60084,2470.74,2023-4-13T02:58:41Z
2023-04-13T00:58:49Z,42.805,6.029,13.3030,4.60092,2470.717,2023-4-13T03:01:44Z
2023-04-13T01:01:52Z,42.805,6.029,13.3030,4.60086,2470.74,2023-4-13T03:04:47Z
2023-04-13T01:04:55Z,42.805,6.029,13.3032,4.60089,2470.707,2023-4-13T03:07:51Z
2023-04-13T01:07:58Z,42.805,6.029,13.3029,4.60089,2470.74,2023-4-13T03:10:54Z
2023-04-13T01:11:01Z,42.805,6.029,13.3031,4.60091,2470.703,2023-4-13T03:13:57Z
2023-04-13T01:14:04Z,42.805,6.029,13.3032,4.60087,2470.74,2023-4-13T03:17:00Z
2023-04-13T01:17:07Z,42.805,6.029,13.3034,4.60085,2470.707,2023-4-13T03:20:03Z
2023-04-13T01:20:11Z,42.805,6.029,13.3028,4.60086,2470.717,2023-4-13T03:23:06Z
2023-04-13T01:23:14Z,42.805,6.029,13.3028,4.60087,2470.754,2023-4-13T03:26:09Z
2023-04-13T01:26:17Z,42.805,6.029,13.3030,4.60096,2470.717,2023-4-13T03:29:12Z
2023-04-13T01:29:20Z,42.805,6.029,13.3034,4.60084,2470.754,2023-4-13T03:32:15Z
2023-04-13T01:32:23Z,42.805,6.029,13.3032,4.60089,2470.74,2023-4-13T03:35:18Z
2023-04-13T01:35:26Z,42.805,6.029,13.3026,4.60085,2470.74,2023-4-13T03:38:21Z
2023-04-13T01:38:29Z,42.805,6.029,13.3030,4.60084,2470.777,2023-4-13T03:41:24Z
2023-04-13T01:41:32Z,42.805,6.029,13.3026,4.60087,2470.693,2023-4-13T03:44:28Z
2023-04-13T01:44:35Z,42.805,6.029,13.3033,4.60085,2470.754,2023-4-13T03:47:31Z
2023-04-13T01:47:38Z,42.805,6.029,13.3033,4.60085,2470.717,2023-4-13T03:50:34Z
2023-04-13T01:50:41Z,42.805,6.029,13.3031,4.60085,2470.754,2023-4-13T03:53:37Z
2023-04-13T01:53:44Z,42.805,6.029,13.3027,4.60087,2470.73,2023-4-13T03:56:40Z
2023-04-13T01:56:47Z,42.805,6.029,13.3033,4.60083,2470.717,2023-4-13T03:59:43Z
2023-04-13T01:59:51Z,42.805,6.029,13.3032,4.60084,2470.777,2023-4-13T04:02:46Z
2023-04-13T02:02:54Z,42.805,6.029,13.3038,4.60084,2470.74,2023-4-13T04:05:49Z
2023-04-13T02:05:57Z,42.805,6.029,13.3028,4.60084,2470.74,2023-4-13T04:08:52Z
2023-04-13T02:09:00Z,42.805,6.029,13.3032,4.60084,2470.717,2023-4-13T04:11:55Z
2023-04-13T02:12:03Z,42.805,6.029,13.3031,4.60082,2470.74,2023-4-13T04:14:58Z
2023-04-13T02:15:06Z,42.805,6.029,13.3031,4.60084,2470.717,2023-4-13T04:18:01Z
2023-04-13T02:18:09Z,42.805,6.029,13.3036,4.60084,2470.74,2023-4-13T04:21:04Z
2023-04-13T02:21:12Z,42.805,6.029,13.3031,4.60087,2470.73,2023-4-13T04:24:08Z
2023-04-13T02:24:15Z,42.805,6.029,13.3030,4.60083,2470.73,2023-4-13T04:27:11Z
2023-04-13T02:27:18Z,42.805,6.029,13.3029,4.60082,2470.754,2023-4-13T04:30:14Z
2023-04-13T02:30:21Z,42.805,6.029,13.3033,4.60081,2470.787,2023-4-13T04:33:17Z
2023-04-13T02:33:24Z,42.805,6.029,13.3031,4.60083,2470.74,2023-4-13T04:36:20Z
2023-04-13T02:36:28Z,42.805,6.029,13.3031,4.60081,2470.74,2023-4-13T04:39:23Z
2023-04-13T02:39:31Z,42.805,6.029,13.3036,4.60086,2470.74,2023-4-13T04:42:26Z
2023-04-13T02:42:34Z,42.805,6.029,13.3032,4.60086,2470.717,2023-4-13T04:45:29Z
2023-04-13T02:45:37Z,42.805,6.029,13.3031,4.60081,2470.74,2023-4-13T04:48:32Z
2023-04-13T02:48:40Z,42.805,6.029,13.3032,4.60099,2470.754,2023-4-13T04:51:35Z
2023-04-13T02:51:43Z,42.805,6.029,13.3030,4.60084,2470.726,2023-4-13T04:54:38Z
2023-04-13T02:54:46Z,42.805,6.029,13.3032,4.60084,2470.73,2023-4-13T04:57:42Z
2023-04-13T02:57:49Z,42.805,6.029,13.3030,4.60087,2470.717,2023-4-13T05:00:45Z
2023-04-13T03:00:52Z,42.805,6.029,13.3031,4.60090,2470.73,2023-4-13T05:03:48Z
2023-04-13T03:03:55Z,42.805,6.029,13.3029,4.60092,2470.73,2023-4-13T05:06:51Z
2023-04-13T03:06:58Z,42.805,6.029,13.3031,4.60081,2470.726,2023-4-13T05:09:54Z
2023-04-13T03:10:01Z,42.805,6.029,13.3029,4.60084,2470.73,2023-4-13T05:12:57Z
2023-04-13T03:13:04Z,42.805,6.029,13.3030,4.60088,2470.717,2023-4-13T05:16:00Z
2023-04-13T03:16:08Z,42.805,6.029,13.3029,4.60084,2470.693,2023-4-13T05:19:03Z
2023-04-13T03:19:11Z,42.805,6.029,13.3029,4.60087,2470.717,2023-4-13T05:22:06Z
2023-04-13T03:22:14Z,42.805,6.029,13.3031,4.60084,2470.717,2023-4-13T05:25:09Z
2023-04-13T03:25:17Z,42.805,6.029,13.3030,4.60085,2470.74,2023-4-13T05:28:12Z
2023-04-13T03:28:20Z,42.805,6.029,13.3031,4.60091,2470.73,2023-4-13T05:31:15Z
2023-04-13T03:31:23Z,42.805,6.029,13.3027,4.60084,2470.717,2023-4-13T05:34:18Z
2023-04-13T03:34:26Z,42.805,6.029,13.3031,4.60088,2470.693,2023-4-13T05:37:22Z
2023-04-13T03:37:29Z,42.805,6.029,13.3031,4.60087,2470.73,2023-4-13T05:40:25Z
2023-04-13T03:40:32Z,42.805,6.029,13.3027,4.60089,2470.707,2023-4-13T05:43:28Z
2023-04-13T03:43:35Z,42.805,6.029,13.3032,4.60091,2470.693,2023-4-13T05:46:31Z
2023-04-13T03:46:38Z,42.805,6.029,13.3031,4.60088,2470.67,2023-4-13T05:49:34Z
2023-04-13T03:49:41Z,42.805,6.029,13.3034,4.60088,2470.693,2023-4-13T05:52:37Z
2023-04-13T03:52:45Z,42.805,6.029,13.3029,4.60081,2470.707,2023-4-13T05:55:40Z
2023-04-13T03:55:48Z,42.805,6.029,13.3029,4.60084,2470.73,2023-4-13T05:58:43Z
2023-04-13T03:58:51Z,42.805,6.029,13.3035,4.60082,2470.707,2023-4-13T06:01:46Z
2023-04-13T04:01:54Z,42.805,6.029,13.3026,4.60080,2470.707,2023-4-13T06:04:49Z
2023-04-13T04:04:57Z,42.805,6.029,13.3029,4.60082,2470.693,2023-4-13T06:07:52Z
2023-04-13T04:08:00Z,42.805,6.029,13.3030,4.60086,2470.679,2023-4-13T06:10:56Z
2023-04-13T04:11:03Z,42.805,6.029,13.3026,4.60087,2470.693,2023-4-13T06:13:59Z
2023-04-13T04:14:06Z,42.805,6.029,13.3029,4.60089,2470.679,2023-4-13T06:17:02Z
2023-04-13T04:17:09Z,42.805,6.029,13.3028,4.60085,2470.693,2023-4-13T06:20:05Z
2023-04-13T04:20:12Z,42.805,6.029,13.3029,4.60081,2470.67,2023-4-13T06:23:08Z
2023-04-13T04:23:15Z,42.805,6.029,13.3031,4.60080,2470.693,2023-4-13T06:26:11Z
2023-04-13T04:26:18Z,42.805,6.029,13.3031,4.60089,2470.67,2023-4-13T06:29:14Z
2023-04-13T04:29:22Z,42.805,6.029,13.3031,4.60080,2470.67,2023-4-13T06:32:17Z
2023-04-13T04:32:25Z,42.805,6.029,13.3030,4.60084,2470.684,2023-4-13T06:35:20Z
2023-04-13T04:35:28Z,42.805,6.029,13.3027,4.60084,2470.646,2023-4-13T06:38:23Z
2023-04-13T04:38:31Z,42.805,6.029,13.3029,4.60083,2470.67,2023-4-13T06:41:26Z
2023-04-13T04:41:34Z,42.805,6.029,13.3030,4.60091,2470.707,2023-4-13T06:44:29Z
2023-04-13T04:44:37Z,42.805,6.029,13.3029,4.60084,2470.684,2023-4-13T06:47:32Z
2023-04-13T04:47:40Z,42.805,6.029,13.3026,4.60081,2470.717,2023-4-13T06:50:36Z
2023-04-13T04:50:43Z,42.805,6.029,13.3032,4.60080,2470.67,2023-4-13T06:53:39Z
2023-04-13T04:53:46Z,42.805,6.029,13.3027,4.60081,2470.67,2023-4-13T06:56:42Z
2023-04-13T04:56:49Z,42.805,6.029,13.3029,4.60093,2470.67,2023-4-13T06:59:45Z
2023-04-13T04:59:52Z,42.805,6.029,13.3026,4.60081,2470.684,2023-4-13T07:02:48Z
2023-04-13T05:02:55Z,42.805,6.029,13.3031,4.60084,2470.661,2023-4-13T07:05:51Z
2023-04-13T05:05:59Z,42.805,6.029,13.3031,4.60081,2470.661,2023-4-13T07:08:54Z
2023-04-13T05:09:02Z,42.805,6.029,13.3029,4.60087,2470.693,2023-4-13T07:11:57Z
2023-04-13T05:12:05Z,42.805,6.029,13.3029,4.60085,2470.646,2023-4-13T07:15:00Z
2023-04-13T05:15:08Z,42.805,6.029,13.3030,4.60087,2470.67,2023-4-13T07:18:03Z
2023-04-13T05:18:11Z,42.805,6.029,13.3026,4.60080,2470.67,2023-4-13T07:21:06Z
2023-04-13T05:21:14Z,42.805,6.029,13.3029,4.60080,2470.693,2023-4-13T07:24:09Z
2023-04-13T05:24:17Z,42.805,6.029,13.3030,4.60080,2470.67,2023-4-13T07:27:13Z
2023-04-13T05:27:20Z,42.805,6.029,13.3029,4.60078,2470.684,2023-4-13T07:30:16Z
2023-04-13T05:30:23Z,42.805,6.029,13.3027,4.60080,2470.67,2023-4-13T07:33:19Z
2023-04-13T05:33:26Z,42.805,6.029,13.3026,4.60081,2470.67,2023-4-13T07:36:22Z
2023-04-13T05:36:29Z,42.805,6.029,13.3026,4.60087,2470.646,2023-4-13T07:39:25Z
2023-04-13T05:39:32Z,42.805,6.029,13.3029,4.60080,2470.67,2023-4-13T07:42:28Z
2023-04-13T05:42:36Z,42.805,6.029,13.3032,4.60085,2470.67,2023-4-13T07:45:31Z
2023-04-13T05:45:39Z,42.805,6.029,13.3029,4.60081,2470.67,2023-4-13T07:48:34Z
2023-04-13T05:48:42Z,42.805,6.029,13.3031,4.60081,2470.67,2023-4-13T07:51:37Z
2023-04-13T05:51:45Z,42.805,6.029,13.3027,4.60086,2470.646,2023-4-13T07:54:40Z
2023-04-13T05:54:48Z,42.805,6.029,13.3029,4.60079,2470.646,2023-4-13T07:57:43Z
2023-04-13T05:57:51Z,42.805,6.029,13.3031,4.60081,2470.684,2023-4-13T08:00:47Z
2023-04-13T06:00:54Z,42.805,6.029,13.3024,4.60080,2470.646,2023-4-13T08:03:50Z
2023-04-13T06:03:57Z,42.805,6.029,13.3029,4.60080,2470.646,2023-4-13T08:06:53Z
2023-04-13T06:07:00Z,42.805,6.029,13.3025,4.60079,2470.646,2023-4-13T08:09:56Z
2023-04-13T06:10:03Z,42.805,6.029,13.3027,4.60081,2470.684,2023-4-13T08:12:59Z
2023-04-13T06:13:06Z,42.805,6.029,13.3026,4.60079,2470.661,2023-4-13T08:16:02Z
2023-04-13T06:16:09Z,42.805,6.029,13.3024,4.60078,2470.646,2023-4-13T08:19:05Z
2023-04-13T06:19:13Z,42.805,6.029,13.3034,4.60080,2470.684,2023-4-13T08:22:08Z
2023-04-13T06:22:16Z,42.805,6.029,13.3041,4.60082,2470.646,2023-4-13T08:25:11Z
2023-04-13T06:25:19Z,42.805,6.029,13.3030,4.60083,2470.646,2023-4-13T08:28:14Z
2023-04-13T06:28:22Z,42.805,6.029,13.3031,4.60089,2470.684,2023-4-13T08:31:17Z
2023-04-13T06:31:24Z,42.805,6.029,13.3031,4.60087,2470.67,2023-4-13T08:34:19Z
2023-04-13T06:34:27Z,42.805,6.029,13.3030,4.60080,2470.633,2023-4-13T08:37:22Z
2023-04-13T06:37:30Z,42.805,6.029,13.3029,4.60081,2470.693,2023-4-13T08:40:25Z
2023-04-13T06:40:33Z,42.805,6.029,13.3026,4.60079,2470.624,2023-4-13T08:43:29Z
2023-04-13T06:43:36Z,42.805,6.029,13.3029,4.60083,2470.646,2023-4-13T08:46:32Z
2023-04-13T06:46:39Z,42.805,6.029,13.3029,4.60081,2470.684,2023-4-13T08:49:35Z
2023-04-13T06:49:42Z,42.805,6.029,13.3032,4.60079,2470.661,2023-4-13T08:52:38Z
2023-04-13T06:52:45Z,42.805,6.029,13.3029,4.60081,2470.624,2023-4-13T08:55:41Z
2023-04-13T06:55:48Z,42.805,6.029,13.3024,4.60074,2470.637,2023-4-13T08:58:44Z
2023-04-13T06:58:51Z,42.805,6.029,13.3028,4.60077,2470.624,2023-4-13T09:01:47Z
2023-04-13T07:01:55Z,42.805,6.029,13.3019,4.60074,2470.646,2023-4-13T09:04:50Z
2023-04-13T07:04:58Z,42.805,6.029,13.3024,4.60074,2470.661,2023-4-13T09:07:53Z
2023-04-13T07:08:01Z,42.805,6.029,13.3023,4.60077,2470.646,2023-4-13T09:10:56Z
2023-04-13T07:11:04Z,42.805,6.029,13.3020,4.60074,2470.646,2023-4-13T09:13:59Z
2023-04-13T07:14:07Z,42.805,6.029,13.3021,4.60074,2470.637,2023-4-13T09:17:03Z
2023-04-13T07:17:10Z,42.805,6.029,13.3024,4.60072,2470.646,2023-4-13T09:20:06Z
2023-04-13T07:20:13Z,42.805,6.029,13.3021,4.60076,2470.67,2023-4-13T09:23:09Z
2023-04-13T07:23:16Z,42.805,6.029,13.3021,4.60086,2470.646,2023-4-13T09:26:12Z
2023-04-13T07:26:19Z,42.805,6.029,13.3019,4.60075,2470.646,2023-4-13T09:29:15Z
2023-04-13T07:29:22Z,42.805,6.029,13.3021,4.60071,2470.637,2023-4-13T09:32:18Z
2023-04-13T07:32:25Z,42.805,6.029,13.3019,4.60071,2470.624,2023-4-13T09:35:21Z
2023-04-13T07:35:28Z,42.805,6.029,13.3022,4.60072,2470.646,2023-4-13T09:38:24Z
2023-04-13T07:38:32Z,42.805,6.029,13.3018,4.60072,2470.586,2023-4-13T09:41:27Z
2023-04-13T07:41:35Z,42.805,6.029,13.3021,4.60069,2470.624,2023-4-13T09:44:30Z
2023-04-13T07:44:38Z,42.805,6.029,13.3021,4.60072,2470.67,2023-4-13T09:47:33Z
2023-04-13T07:47:41Z,42.805,6.029,13.3018,4.60070,2470.661,2023-4-13T09:50:36Z
2023-04-13T07:50:44Z,42.805,6.029,13.3018,4.60069,2470.707,2023-4-13T09:53:40Z
2023-04-13T07:53:47Z,42.805,6.029,13.3019,4.60069,2470.624,2023-4-13T09:56:43Z
2023-04-13T07:56:50Z,42.805,6.029,13.3022,4.60069,2470.637,2023-4-13T09:59:46Z
2023-04-13T07:59:53Z,42.805,6.029,13.3018,4.60085,2470.661,2023-4-13T10:02:49Z
2023-04-13T08:02:56Z,42.805,6.029,13.3019,4.60069,2470.624,2023-4-13T10:05:52Z
2023-04-13T08:05:59Z,42.805,6.029,13.3015,4.60070,2470.661,2023-4-13T10:08:55Z
2023-04-13T08:09:02Z,42.805,6.029,13.3016,4.60072,2470.646,2023-4-13T10:11:58Z
2023-04-13T08:12:05Z,42.805,6.029,13.3024,4.60074,2470.661,2023-4-13T10:15:01Z
2023-04-13T08:15:09Z,42.805,6.029,13.3022,4.60072,2470.624,2023-4-13T10:18:04Z
2023-04-13T08:18:12Z,42.805,6.029,13.3019,4.60071,2470.646,2023-4-13T10:21:07Z
2023-04-13T08:21:15Z,42.805,6.029,13.3024,4.60072,2470.624,2023-4-13T10:24:10Z
2023-04-13T08:24:18Z,42.805,6.029,13.3022,4.60075,2470.661,2023-4-13T10:27:13Z
2023-04-13T08:27:21Z,42.805,6.029,13.3023,4.60072,2470.661,2023-4-13T10:30:17Z
2023-04-13T08:30:22Z,42.805,6.029,13.3022,4.60073,2470.637,2023-4-13T10:33:18Z
2023-04-13T08:33:25Z,42.805,6.029,13.3021,4.60072,2470.646,2023-4-13T10:36:21Z
2023-04-13T08:36:29Z,42.805,6.029,13.3026,4.60072,2470.661,2023-4-13T10:39:24Z
2023-04-13T08:39:32Z,42.805,6.029,13.3017,4.60072,2470.684,2023-4-13T10:42:27Z
2023-04-13T08:42:35Z,42.805,6.029,13.3019,4.60070,2470.661,2023-4-13T10:45:30Z
2023-04-13T08:45:38Z,42.805,6.029,13.3018,4.60071,2470.684,2023-4-13T10:48:33Z
2023-04-13T08:48:41Z,42.805,6.029,13.3025,4.60071,2470.646,2023-4-13T10:51:37Z
2023-04-13T08:51:44Z,42.805,6.029,13.3021,4.60076,2470.67,2023-4-13T10:54:40Z
2023-04-13T08:54:47Z,42.805,6.029,13.3020,4.60072,2470.684,2023-4-13T10:57:43Z
2023-04-13T08:57:50Z,42.805,6.029,13.3022,4.60074,2470.684,2023-4-13T11:00:46Z
2023-04-13T09:00:53Z,42.805,6.029,13.3019,4.60077,2470.646,2023-4-13T11:03:49Z
2023-04-13T09:03:56Z,42.805,6.029,13.3019,4.60074,2470.637,2023-4-13T11:06:52Z
2023-04-13T09:06:59Z,42.805,6.029,13.3019,4.60071,2470.646,2023-4-13T11:09:55Z
2023-04-13T09:10:03Z,42.805,6.029,13.3024,4.60071,2470.646,2023-4-13T11:12:58Z
2023-04-13T09:13:06Z,42.805,6.029,13.3020,4.60075,2470.67,2023-4-13T11:16:01Z
2023-04-13T09:16:09Z,42.805,6.029,13.3021,4.60073,2470.684,2023-4-13T11:19:04Z
2023-04-13T09:19:12Z,42.805,6.029,13.3021,4.60072,2470.646,2023-4-13T11:22:07Z
2023-04-13T09:22:15Z,42.805,6.029,13.3019,4.60069,2470.684,2023-4-13T11:25:11Z
2023-04-13T09:25:18Z,42.805,6.029,13.3020,4.60071,2470.693,2023-4-13T11:28:14Z
2023-04-13T09:28:21Z,42.805,6.029,13.3018,4.60069,2470.661,2023-4-13T11:31:17Z
2023-04-13T09:31:24Z,42.805,6.029,13.3021,4.60072,2470.646,2023-4-13T11:34:20Z
2023-04-13T09:34:27Z,42.805,6.029,13.3023,4.60070,2470.684,2023-4-13T11:37:23Z
2023-04-13T09:37:30Z,42.805,6.029,13.3020,4.60072,2470.693,2023-4-13T11:40:26Z
2023-04-13T09:40:33Z,42.805,6.029,13.3024,4.60076,2470.67,2023-4-13T11:43:29Z
2023-04-13T09:43:36Z,42.805,6.029,13.3020,4.60073,2470.707,2023-4-13T11:46:32Z
2023-04-13T09:46:40Z,42.805,6.029,13.3018,4.60074,2470.646,2023-4-13T11:49:35Z
2023-04-13T09:49:43Z,42.805,6.029,13.3021,4.60073,2470.67,2023-4-13T11:52:38Z
2023-04-13T09:52:46Z,42.805,6.029,13.3020,4.60099,2470.67,2023-4-13T11:55:41Z
2023-04-13T09:55:49Z,42.805,6.029,13.3024,4.60079,2470.684,2023-4-13T11:58:45Z
2023-04-13T09:58:52Z,42.805,6.029,13.3023,4.60079,2470.693,2023-4-13T12:01:48Z
2023-04-13T10:01:55Z,42.805,6.029,13.3018,4.60077,2470.646,2023-4-13T12:04:51Z
2023-04-13T10:04:58Z,42.805,6.029,13.3019,4.60074,2470.646,2023-4-13T12:07:54Z
2023-04-13T10:08:01Z,42.805,6.029,13.3019,4.60077,2470.707,2023-4-13T12:10:57Z
2023-04-13T10:11:04Z,42.805,6.029,13.3018,4.60085,2470.67,2023-4-13T12:14:00Z
2023-04-13T10:14:07Z,42.805,6.029,13.3024,4.60073,2470.67,2023-4-13T12:17:03Z
2023-04-13T10:17:10Z,42.805,6.029,13.3020,4.60074,2470.67,2023-4-13T12:20:06Z
2023-04-13T10:20:14Z,42.805,6.029,13.3025,4.60074,2470.67,2023-4-13T12:23:09Z
2023-04-13T10:23:17Z,42.805,6.029,13.3021,4.60078,2470.684,2023-4-13T12:26:12Z
2023-04-13T10:26:20Z,42.805,6.029,13.3024,4.60077,2470.656,2023-4-13T12:29:15Z
2023-04-13T10:29:23Z,42.805,6.029,13.3023,4.60085,2470.67,2023-4-13T12:32:18Z
2023-04-13T10:32:26Z,42.805,6.029,13.3024,4.60080,2470.67,2023-4-13T12:35:22Z
2023-04-13T10:35:29Z,42.805,6.029,13.3025,4.60096,2470.684,2023-4-13T12:38:25Z
2023-04-13T10:38:32Z,42.805,6.029,13.3023,4.60075,2470.67,2023-4-13T12:41:28Z
2023-04-13T10:41:35Z,42.805,6.029,13.3020,4.60081,2470.707,2023-4-13T12:44:31Z
2023-04-13T10:44:38Z,42.805,6.029,13.3020,4.60092,2470.661,2023-4-13T12:47:34Z
2023-04-13T10:47:41Z,42.805,6.029,13.3022,4.60091,2470.684,2023-4-13T12:50:37Z
2023-04-13T10:50:44Z,42.805,6.029,13.3020,4.60084,2470.646,2023-4-13T12:53:40Z
2023-04-13T10:53:48Z,42.805,6.029,13.3021,4.60079,2470.646,2023-4-13T12:56:43Z
2023-04-13T10:56:51Z,42.805,6.029,13.3022,4.60086,2470.646,2023-4-13T12:59:46Z
2023-04-13T10:59:54Z,42.805,6.029,13.3022,4.60077,2470.693,2023-4-13T13:02:49Z
2023-04-13T11:02:57Z,42.805,6.029,13.3022,4.60074,2470.646,2023-4-13T13:05:52Z
2023-04-13T11:06:00Z,42.805,6.029,13.3019,4.60074,2470.67,2023-4-13T13:08:56Z
2023-04-13T11:09:03Z,42.805,6.029,13.3017,4.60073,2470.646,2023-4-13T13:11:59Z
2023-04-13T11:12:06Z,42.805,6.029,13.3015,4.60074,2470.661,2023-4-13T13:15:02Z
2023-04-13T11:15:09Z,42.805,6.029,13.3021,4.60074,2470.707,2023-4-13T13:18:05Z
2023-04-13T11:18:12Z,42.805,6.029,13.3020,4.60074,2470.633,2023-4-13T13:21:08Z
2023-04-13T11:21:15Z,42.805,6.029,13.3021,4.60077,2470.684,2023-4-13T13:24:11Z
2023-04-13T11:24:18Z,42.805,6.029,13.3021,4.60078,2470.637,2023-4-13T13:27:14Z
2023-04-13T11:27:21Z,42.805,6.029,13.3021,4.60081,2470.67,2023-4-13T13:30:17Z
2023-04-13T11:30:25Z,42.805,6.029,13.3017,4.60077,2470.661,2023-4-13T13:33:20Z
2023-04-13T11:33:28Z,42.805,6.029,13.3019,4.60081,2470.67,2023-4-13T13:36:23Z
2023-04-13T11:36:31Z,42.805,6.029,13.3022,4.60077,2470.646,2023-4-13T13:39:26Z
2023-04-13T11:39:34Z,42.805,6.029,13.3021,4.60074,2470.693,2023-4-13T13:42:29Z
2023-04-13T11:42:37Z,42.805,6.029,13.3018,4.60082,2470.684,2023-4-13T13:45:33Z
2023-04-13T11:45:40Z,42.805,6.029,13.3019,4.60075,2470.646,2023-4-13T13:48:36Z
2023-04-13T11:48:43Z,42.805,6.029,13.3019,4.60079,2470.661,2023-4-13T13:51:39Z
2023-04-13T11:51:46Z,42.805,6.029,13.3022,4.60089,2470.646,2023-4-13T13:54:42Z
2023-04-13T11:54:49Z,42.805,6.029,13.3019,4.60087,2470.646,2023-4-13T13:57:45Z
2023-04-13T11:57:52Z,42.805,6.029,13.3018,4.60087,2470.646,2023-4-13T14:00:48Z
2023-04-13T12:00:55Z,42.805,6.029,13.3018,4.60082,2470.624,2023-4-13T14:03:51Z
2023-04-13T12:03:58Z,42.805,6.029,13.3015,4.60081,2470.67,2023-4-13T14:06:54Z
2023-04-13T12:07:02Z,42.805,6.029,13.3019,4.60086,2470.646,2023-4-13T14:09:57Z
2023-04-13T12:10:05Z,42.805,6.029,13.3018,4.60081,2470.67,2023-4-13T14:13:00Z
2023-04-13T12:13:08Z,42.805,6.029,13.3021,4.60077,2470.624,2023-4-13T14:16:03Z
2023-04-13T12:16:11Z,42.805,6.029,13.3019,4.60076,2470.67,2023-4-13T14:19:07Z
2023-04-13T12:19:14Z,42.805,6.029,13.3020,4.60079,2470.661,2023-4-13T14:22:10Z
2023-04-13T12:22:17Z,42.805,6.029,13.3019,4.60075,2470.67,2023-4-13T14:25:13Z
2023-04-13T12:25:20Z,42.805,6.029,13.3016,4.60078,2470.661,2023-4-13T14:28:16Z
2023-04-13T12:28:23Z,42.805,6.029,13.3022,4.60088,2470.661,2023-4-13T14:31:19Z
2023-04-13T12:31:26Z,42.805,6.029,13.3020,4.60078,2470.661,2023-4-13T14:34:22Z
2023-04-13T12:34:29Z,42.805,6.029,13.3022,4.60075,2470.67,2023-4-13T14:37:25Z
2023-04-13T12:37:32Z,42.805,6.029,13.3020,4.60085,2470.646,2023-4-13T14:40:28Z
2023-04-13T12:40:35Z,42.805,6.029,13.3020,4.60079,2470.67,2023-4-13T14:43:31Z
2023-04-13T12:43:39Z,42.805,6.029,13.3016,4.60078,2470.67,2023-4-13T14:46:34Z
2023-04-13T12:46:42Z,42.805,6.029,13.3021,4.60081,2470.646,2023-4-13T14:49:37Z
2023-04-13T12:49:45Z,42.805,6.029,13.3019,4.60080,2470.67,2023-4-13T14:52:40Z
2023-04-13T12:52:48Z,42.805,6.029,13.3020,4.60076,2470.67,2023-4-13T14:55:44Z
2023-04-13T12:55:51Z,42.805,6.029,13.3022,4.60075,2470.646,2023-4-13T14:58:47Z
2023-04-13T12:58:54Z,42.805,6.029,13.3019,4.60076,2470.637,2023-4-13T15:01:50Z
2023-04-13T13:01:57Z,42.805,6.029,13.3019,4.60076,2470.684,2023-4-13T15:04:53Z
2023-04-13T13:05:00Z,42.805,6.029,13.3021,4.60077,2470.637,2023-4-13T15:07:56Z
2023-04-13T13:08:03Z,42.805,6.029,13.3019,4.60079,2470.646,2023-4-13T15:10:59Z
2023-04-13T13:11:06Z,42.805,6.029,13.3020,4.60079,2470.67,2023-4-13T15:14:02Z
2023-04-13T13:14:09Z,42.805,6.029,13.3019,4.60077,2470.67,2023-4-13T15:17:05Z
2023-04-13T13:17:12Z,42.805,6.029,13.3018,4.60083,2470.684,2023-4-13T15:20:08Z
2023-04-13T13:20:16Z,42.805,6.029,13.3021,4.60079,2470.661,2023-4-13T15:23:11Z
2023-04-13T13:23:19Z,42.805,6.029,13.3022,4.60079,2470.693,2023-4-13T15:26:14Z
2023-04-13T13:26:22Z,42.805,6.029,13.3023,4.60079,2470.646,2023-4-13T15:29:18Z
2023-04-13T13:29:25Z,42.805,6.029,13.3021,4.60081,2470.661,2023-4-13T15:32:21Z
2023-04-13T13:32:28Z,42.805,6.029,13.3018,4.60082,2470.67,2023-4-13T15:35:24Z
2023-04-13T13:35:31Z,42.805,6.029,13.3021,4.60084,2470.646,2023-4-13T15:38:27Z
2023-04-13T13:38:34Z,42.805,6.029,13.3022,4.60074,2470.707,2023-4-13T15:41:30Z
2023-04-13T13:41:37Z,42.805,6.029,13.3020,4.60081,2470.646,2023-4-13T15:44:33Z
2023-04-13T13:44:40Z,42.805,6.029,13.3018,4.60079,2470.684,2023-4-13T15:47:36Z
2023-04-13T13:47:43Z,42.805,6.029,13.3018,4.60075,2470.67,2023-4-13T15:50:39Z
2023-04-13T13:50:46Z,42.805,6.029,13.3021,4.60079,2470.661,2023-4-13T15:53:42Z
2023-04-13T13:53:50Z,42.805,6.029,13.3019,4.60077,2470.646,2023-4-13T15:56:45Z
2023-04-13T13:56:53Z,42.805,6.029,13.3021,4.60071,2470.67,2023-4-13T15:59:48Z
2023-04-13T13:59:56Z,42.805,6.029,13.3020,4.60072,2470.646,2023-4-13T16:02:51Z
2023-04-13T14:02:59Z,42.805,6.029,13.3021,4.60072,2470.646,2023-4-13T16:05:55Z
2023-04-13T14:06:02Z,42.805,6.029,13.3020,4.60071,2470.646,2023-4-13T16:08:58Z
2023-04-13T14:09:05Z,42.805,6.029,13.3021,4.60069,2470.624,2023-4-13T16:12:01Z
2023-04-13T14:12:08Z,42.805,6.029,13.3022,4.60072,2470.624,2023-4-13T16:15:04Z
2023-04-13T14:15:11Z,42.805,6.029,13.3018,4.60069,2470.661,2023-4-13T16:18:07Z
2023-04-13T14:18:14Z,42.805,6.029,13.3017,4.60070,2470.646,2023-4-13T16:21:10Z
2023-04-13T14:21:17Z,42.805,6.029,13.3018,4.60072,2470.646,2023-4-13T16:24:13Z
2023-04-13T14:24:20Z,42.805,6.029,13.3021,4.60073,2470.646,2023-4-13T16:27:16Z
2023-04-13T14:27:24Z,42.805,6.029,13.3017,4.60069,2470.646,2023-4-13T16:30:19Z
2023-04-13T14:30:25Z,42.805,6.029,13.3019,4.60072,2470.67,2023-4-13T16:33:21Z
2023-04-13T14:33:28Z,42.805,6.029,13.3022,4.60070,2470.684,2023-4-13T16:36:24Z
2023-04-13T14:36:31Z,42.805,6.029,13.3019,4.60074,2470.624,2023-4-13T16:39:27Z
2023-04-13T14:39:34Z,42.805,6.029,13.3018,4.60073,2470.624,2023-4-13T16:42:30Z
2023-04-13T14:42:37Z,42.805,6.029,13.3020,4.60076,2470.646,2023-4-13T16:45:33Z
2023-04-13T14:45:40Z,42.805,6.029,13.3020,4.60072,2470.624,2023-4-13T16:48:36Z
2023-04-13T14:48:43Z,42.805,6.029,13.3020,4.60069,2470.624,2023-4-13T16:51:39Z
2023-04-13T14:51:46Z,42.805,6.029,13.3017,4.60072,2470.614,2023-4-13T16:54:42Z
2023-04-13T14:54:50Z,42.805,6.029,13.3015,4.60074,2470.624,2023-4-13T16:57:45Z
2023-04-13T14:57:53Z,42.805,6.029,13.3019,4.60074,2470.646,2023-4-13T17:00:48Z
2023-04-13T15:00:56Z,42.805,6.029,13.3019,4.60074,2470.624,2023-4-13T17:03:51Z
2023-04-13T15:03:59Z,42.805,6.029,13.3021,4.60074,2470.646,2023-4-13T17:06:55Z
2023-04-13T15:07:02Z,42.805,6.029,13.3014,4.60069,2470.661,2023-4-13T17:09:58Z
2023-04-13T15:10:05Z,42.805,6.029,13.3020,4.60072,2470.624,2023-4-13T17:13:01Z